This is the latest recevied weather packets stored in our database for station/object KC3DGM. If no packets are shown the sender has not sent any weather packets the latest 10 day(s).
| Time | Temp. | Humidity | Pressure | Rain* | Wind** | Luminosity | Snow |
|---|---|---|---|---|---|---|---|
| 1777403662 | 15° C | 87% | 985.1 hPa | 0 mm | - | 101 W/m² | - |
| 1777403362 | 15° C | 86% | 985 hPa | 0 mm | - | 142 W/m² | - |
| 1777403062 | 15° C | 87% | 985 hPa | 0 mm | - | 85 W/m² | - |
| 1777402758 | 15° C | 87% | 984.9 hPa | 0 mm | - | 88 W/m² | - |
| 1777402454 | 15° C | 88% | 984.9 hPa | 0 mm | - | 58 W/m² | - |
| 1777402152 | 14.44° C | 87% | 984.9 hPa | 0 mm | - | 79 W/m² | - |
| 1777401847 | 14.44° C | 88% | 984.8 hPa | 0 mm | - | 78 W/m² | - |
| 1777401547 | 14.44° C | 88% | 984.7 hPa | 0 mm | - | 78 W/m² | - |
| 1777401242 | 14.44° C | 88% | 985 hPa | 0 mm | - | 65 W/m² | - |
| 1777400938 | 14.44° C | 88% | 985.1 hPa | 0 mm | - | 73 W/m² | - |
| 1777400634 | 14.44° C | 88% | 984.9 hPa | 0 mm | - | 65 W/m² | - |
| 1777400332 | 14.44° C | 88% | 984.8 hPa | 0 mm | - | 83 W/m² | - |
| 1777400027 | 14.44° C | 87% | 985.1 hPa | 0 mm | - | 73 W/m² | - |
| 1777399725 | 14.44° C | 87% | 985 hPa | 0 mm | - | 65 W/m² | - |
| 1777399421 | 14.44° C | 86% | 985.1 hPa | 0 mm | - | 85 W/m² | - |
| 1777399119 | 14.44° C | 86% | 985.2 hPa | 0 mm | - | 71 W/m² | - |
| 1777398816 | 14.44° C | 86% | 985 hPa | 0 mm | - | 78 W/m² | - |
| 1777398513 | 14.44° C | 85% | 985.1 hPa | 0 mm | - | 76 W/m² | - |
| 1777398210 | 14.44° C | 85% | 984.9 hPa | 0 mm | - | 80 W/m² | - |
| 1777397907 | 14.44° C | 85% | 984.9 hPa | 0 mm | - | 73 W/m² | - |
| 1777397602 | 14.44° C | 84% | 984.8 hPa | 0 mm | - | 65 W/m² | - |
| 1777397299 | 14.44° C | 84% | 984.9 hPa | 0 mm | - | 78 W/m² | - |
| 1777396996 | 14.44° C | 84% | 984.7 hPa | 0 mm | - | 103 W/m² | - |
| 1777396692 | 14.44° C | 83% | 984.7 hPa | 0 mm | - | 81 W/m² | - |
| 1777396389 | 14.44° C | 84% | 985 hPa | 0 mm | - | 80 W/m² | - |
* Rain latest hour (hover to see other rain measurements)
** Current wind speed in m/s (hover to see current wind gust speed)